VA7GFZ-13 Weather Reports


time (UTC)temp
C
wind
direction
speed
KPH
gust
KPH
rain 1hr
cm
rain 24hr
cm
rain mn
cm
humidity
%
barometer
mb
20260504044043 10 329 0.0 0.0 0.00 0.00 0.00 100
20260504043043 12 329 0.0 0.0 0.00 0.00 0.00 100
20260504041040 12 329 0.0 0.0 0.00 0.00 0.00 100
20260504040041 13 329 0.0 0.0 0.00 0.00 0.00 100
20260504035043 13 329 0.0 4.8 0.00 0.00 0.00 100
20260504033043 15 336 0.0 0.0 0.00 0.00 0.00 100
20260504031044 17 315 0.0 0.0 0.00 0.00 0.00 100
20260504030042 17 331 0.0 0.0 0.00 0.00 0.00 100
20260504025043 18 331 0.0 9.7 0.00 0.00 0.00 100
20260504023042 18 278 0.0 9.7 0.00 0.00 0.00 100
20260504022043 19 292 0.0 9.7 0.00 0.00 0.00 100
20260504021044 20 296 0.0 9.7 0.00 0.00 0.00 100
20260504020042 20 317 4.8 12.9 0.00 0.00 0.00 100
20260504015041 20 322 0.0 8.0 0.00 0.00 0.00 100
20260504014043 20 334 0.0 11.3 0.00 0.00 0.00 100
20260504013043 21 310 0.0 8.0 0.00 0.00 0.00 100
20260504011043 21 296 0.0 16.1 0.00 0.00 0.00 100
20260504010043 21 307 4.8 4.8 0.00 0.00 0.00 100
20260504005044 21 313 0.0 12.9 0.00 0.00 0.00 100
20260504004044 21 330 0.0 9.7 0.00 0.00 0.00 100
20260504003041 22 319 6.4 9.7 0.00 0.00 0.00 100
20260504001044 21 336 4.8 16.1 0.00 0.00 0.00 100
20260504000043 22 355 0.0 17.7 0.00 0.00 0.00 100
20260503235044 21 32 0.0 12.9 0.00 0.00 0.00 100
20260503233045 22 345 3.2 9.7 0.00 0.00 0.00 100
20260503232042 23 271 6.4 8.0 0.00 0.00 0.00 100
20260503231045 22 292 0.0 16.1 0.00 0.00 0.00 100
20260503230044 21 2 0.0 11.3 0.00 0.00 0.00 100
20260503222042 21 350 6.4 11.3 0.00 0.00 0.00 100
20260503221044 22 358 3.2 12.9 0.00 0.00 0.00 100
20260503214044 22 358 3.2 8.0 0.00 0.00 0.00 100
20260503213045 22 195 0.0 11.3 0.00 0.00 0.00 100
20260503212105 22 167 0.0 0.0 0.00 0.00 0.00 100
20260503205045 20 167 0.0 0.0 0.00 0.00 0.00 100
20260503204044 20 167 0.0 0.0 0.00 0.00 0.00 100
20260503203041 20 167 0.0 1.6 0.00 0.00 0.00 100
20260503202041 20 319 0.0 8.0 0.00 0.00 0.00 100
20260503201041 20 198 0.0 9.7 0.00 0.00 0.00 100
20260503200041 20 260 0.0 8.0 0.00 0.00 0.00 100
20260503195041 20 14 8.0 8.0 0.00 0.00 0.00 100
20260503194041 20 174 0.0 3.2 0.00 0.00 0.00 100
20260503193041 19 203 0.0 20.9 0.00 0.00 0.00 100
20260503192041 18 230 0.0 0.0 0.00 0.00 0.00 100
20260503191044 17 230 0.0 0.0 0.00 0.00 0.00 100
20260503190041 17 230 0.0 0.0 0.00 0.00 0.00 100
20260503185041 16 230 0.0 0.0 0.00 0.00 0.00 100
20260503184041 15 230 0.0 0.0 0.00 0.00 0.00 100
20260503183041 15 230 0.0 3.2 0.00 0.00 0.00 100
20260503182041 14 330 0.0 0.0 0.00 0.00 0.00 100
20260503181042 14 330 0.0 0.0 0.00 0.00 0.00 100
20260503180042 13 330 0.0 0.0 0.00 0.00 0.00 100
20260503175042 12 330 0.0 0.0 0.00 0.00 0.00 100
20260503174042 11 330 0.0 0.0 0.00 0.00 0.00 100
20260503171054 9 330 0.0 0.0 0.00 0.00 0.00 100